| time (UTC) | temp F | wind direction | speed knots | gust knots | rain 1hr in | rain 24hr in | rain mn in | humidity % | barometer mb |
| 20260903043545 | 78 | 220 | 2.6 | 2.6 | 0.00 | 0.00 | 0.00 | 88 | 1012.7 |
| 20260903043045 | 79 | 224 | 2.6 | 2.6 | 0.00 | 0.00 | 0.00 | 87 | 1012.6 |
| 20260903042539 | 79 | 235 | 2.6 | 2.6 | 0.00 | 0.00 | 0.00 | 85 | 1012.6 |
| 20260903042035 | 79 | 271 | 2.6 | 4.3 | 0.00 | 0.00 | 0.00 | 86 | 1012.7 |
| 20260903041532 | 78 | 232 | 1.7 | 1.7 | 0.00 | 0.00 | 0.00 | 87 | 1012.5 |
| 20260903041027 | 79 | 227 | 2.6 | 2.6 | 0.00 | 0.00 | 0.00 | 87 | 1012.6 |
| 20260903040526 | 79 | 219 | 2.6 | 2.6 | 0.00 | 0.00 | 0.00 | 87 | 1012.7 |
| 20260903040023 | 80 | 224 | 4.3 | 5.2 | 0.00 | 0.00 | 0.00 | 85 | 1012.6 |
| 20260903035518 | 80 | 233 | 6.1 | 7.0 | 0.00 | 0.00 | 0.00 | 84 | 1012.5 |
| 20260903035014 | 80 | 234 | 6.1 | 7.0 | 0.00 | 0.00 | 0.00 | 83 | 1012.7 |
| 20260903034514 | 80 | 213 | 6.1 | 7.0 | 0.00 | 0.00 | 0.00 | 83 | 1012.4 |
| 20260903034008 | 80 | 210 | 5.2 | 5.2 | 0.00 | 0.00 | 0.00 | 84 | 1012.2 |
| 20260903033503 | 80 | 203 | 5.2 | 6.1 | 0.00 | 0.00 | 0.00 | 84 | 1012.3 |
| 20260903032958 | 80 | 218 | 6.1 | 6.1 | 0.00 | 0.00 | 0.00 | 85 | 1012.1 |
| 20260903032454 | 80 | 215 | 5.2 | 6.1 | 0.00 | 0.00 | 0.00 | 85 | 1012.1 |
| 20260903031948 | 80 | 219 | 5.2 | 6.1 | 0.00 | 0.00 | 0.00 | 85 | 1012.0 |
| 20260903031443 | 80 | 210 | 7.0 | 7.8 | 0.00 | 0.00 | 0.00 | 84 | 1012.0 |
| 20260903030938 | 80 | 224 | 6.1 | 7.8 | 0.00 | 0.00 | 0.00 | 85 | 1011.9 |
| 20260903030434 | 80 | 204 | 7.8 | 7.8 | 0.00 | 0.00 | 0.00 | 85 | 1011.8 |
| 20260903025930 | 80 | 210 | 7.0 | 7.8 | 0.00 | 0.00 | 0.00 | 85 | 1011.6 |
| 20260903025426 | 80 | 212 | 7.0 | 7.0 | 0.00 | 0.00 | 0.00 | 85 | 1011.8 |
| 20260903024921 | 80 | 227 | 6.1 | 6.1 | 0.00 | 0.00 | 0.00 | 85 | 1012.0 |
| 20260903024420 | 80 | 222 | 5.2 | 5.2 | 0.00 | 0.00 | 0.00 | 84 | 1012.1 |
| 20260903023914 | 80 | 211 | 5.2 | 6.1 | 0.00 | 0.00 | 0.00 | 85 | 1012.1 |
| 20260903023405 | 80 | 213 | 6.1 | 7.0 | 0.00 | 0.00 | 0.00 | 84 | 1012.3 |
| 20260903022901 | 80 | 215 | 7.0 | 7.8 | 0.00 | 0.00 | 0.00 | 83 | 1012.5 |
| 20260903022359 | 80 | 211 | 6.1 | 7.0 | 0.00 | 0.00 | 0.00 | 84 | 1012.6 |
| 20260903021858 | 80 | 211 | 6.1 | 7.0 | 0.00 | 0.00 | 0.00 | 84 | 1012.4 |
| 20260903021354 | 81 | 215 | 6.1 | 7.0 | 0.00 | 0.00 | 0.00 | 83 | 1012.5 |
| 20260903020853 | 81 | 214 | 7.0 | 7.8 | 0.00 | 0.00 | 0.00 | 82 | 1012.7 |
| 20260903020349 | 82 | 216 | 7.0 | 7.8 | 0.00 | 0.00 | 0.00 | 81 | 1012.5 |
| 20260903015843 | 82 | 214 | 8.7 | 9.6 | 0.00 | 0.00 | 0.00 | 81 | 1012.5 |
| 20260903015338 | 82 | 206 | 7.8 | 8.7 | 0.00 | 0.00 | 0.00 | 80 | 1012.6 |
| 20260903014833 | 82 | 202 | 8.7 | 9.6 | 0.00 | 0.00 | 0.00 | 80 | 1012.4 |
| 20260903014328 | 82 | 216 | 7.8 | 8.7 | 0.00 | 0.00 | 0.00 | 80 | 1012.5 |
| 20260903013823 | 82 | 211 | 7.8 | 8.7 | 0.00 | 0.00 | 0.00 | 80 | 1012.3 |
| 20260903013322 | 82 | 224 | 8.7 | 9.6 | 0.00 | 0.00 | 0.00 | 80 | 1012.6 |
| 20260903012821 | 82 | 211 | 7.8 | 8.7 | 0.00 | 0.00 | 0.00 | 80 | 1012.3 |
| 20260903012316 | 82 | 205 | 7.0 | 8.7 | 0.00 | 0.00 | 0.00 | 80 | 1012.3 |
| 20260903011815 | 82 | 212 | 7.8 | 8.7 | 0.00 | 0.00 | 0.00 | 80 | 1012.4 |
| 20260903011315 | 82 | 230 | 7.8 | 8.7 | 0.00 | 0.00 | 0.00 | 79 | 1012.2 |
| 20260903010810 | 82 | 212 | 7.8 | 8.7 | 0.00 | 0.00 | 0.00 | 79 | 1012.4 |
| 20260903010306 | 82 | 219 | 7.0 | 7.8 | 0.00 | 0.00 | 0.00 | 79 | 1012.3 |
| 20260903005804 | 82 | 213 | 7.0 | 8.7 | 0.00 | 0.00 | 0.00 | 80 | 1012.2 |
| 20260903005259 | 82 | 197 | 6.1 | 6.1 | 0.00 | 0.00 | 0.00 | 80 | 1012.0 |
| 20260903004755 | 82 | 213 | 6.1 | 6.1 | 0.00 | 0.00 | 0.00 | 79 | 1012.2 |
| 20260903004250 | 82 | 206 | 6.1 | 6.1 | 0.00 | 0.00 | 0.00 | 79 | 1012.3 |
| 20260903003746 | 82 | 203 | 6.1 | 7.8 | 0.00 | 0.00 | 0.00 | 79 | 1012.2 |
| 20260903003240 | 82 | 216 | 6.1 | 7.0 | 0.00 | 0.00 | 0.00 | 79 | 1012.0 |
| 20260903002735 | 82 | 206 | 5.2 | 6.1 | 0.00 | 0.00 | 0.00 | 80 | 1012.0 |
| 20260903002229 | 82 | 194 | 6.1 | 6.1 | 0.00 | 0.00 | 0.00 | 80 | 1012.2 |
| 20260903001725 | 82 | 207 | 5.2 | 5.2 | 0.00 | 0.00 | 0.00 | 79 | 1012.2 |
| 20260903001218 | 82 | 213 | 5.2 | 6.1 | 0.00 | 0.00 | 0.00 | 79 | 1012.3 |
| 20260903000714 | 82 | 217 | 4.3 | 5.2 | 0.00 | 0.00 | 0.00 | 78 | 1012.4 |
| 20260903000208 | 83 | 217 | 5.2 | 6.1 | 0.00 | 0.00 | 0.00 | 78 | 1012.1 |
| 20260902235706 | 84 | 217 | 5.2 | 6.1 | 0.00 | 0.00 | 0.00 | 76 | 1012.1 |
| 20260902235202 | 85 | 228 | 7.0 | 7.0 | 0.00 | 0.00 | 0.00 | 74 | 1012.4 |
| 20260902234702 | 85 | 213 | 6.1 | 7.0 | 0.00 | 0.00 | 0.00 | 74 | 1012.3 |
| 20260902234200 | 85 | 219 | 7.0 | 7.0 | 0.00 | 0.00 | 0.00 | 73 | 1012.6 |
| 20260902233655 | 86 | 220 | 7.0 | 7.8 | 0.00 | 0.00 | 0.00 | 73 | 1012.3 |
| 20260902233155 | 86 | 214 | 7.0 | 7.8 | 0.00 | 0.00 | 0.00 | 72 | 1012.3 |
| 20260902232654 | 86 | 219 | 7.0 | 7.0 | 0.00 | 0.00 | 0.00 | 71 | 1012.2 |
| 20260902232153 | 87 | 240 | 6.1 | 7.0 | 0.00 | 0.00 | 0.00 | 70 | 1012.3 |
| 20260902231647 | 87 | 209 | 8.7 | 9.6 | 0.00 | 0.00 | 0.00 | 69 | 1012.3 |
| 20260902231142 | 87 | 216 | 7.8 | 9.6 | 0.00 | 0.00 | 0.00 | 68 | 1012.1 |
| 20260902230638 | 87 | 224 | 7.8 | 8.7 | 0.00 | 0.00 | 0.00 | 68 | 1012.2 |
| 20260902230137 | 88 | 226 | 7.0 | 7.8 | 0.00 | 0.00 | 0.00 | 68 | 1012.3 |
| 20260902225632 | 88 | 215 | 8.7 | 9.6 | 0.00 | 0.00 | 0.00 | 66 | 1012.3 |
| 20260902225131 | 88 | 228 | 6.1 | 7.8 | 0.00 | 0.00 | 0.00 | 67 | 1012.4 |
| 20260902224630 | 89 | 205 | 5.2 | 5.2 | 0.00 | 0.00 | 0.00 | 68 | 1012.4 |
| 20260902224126 | 89 | 228 | 7.8 | 8.7 | 0.00 | 0.00 | 0.00 | 66 | 1012.1 |
| 20260902223622 | 89 | 206 | 10.4 | 12.2 | 0.00 | 0.00 | 0.00 | 64 | 1012.2 |
| 20260902223121 | 89 | 225 | 7.8 | 8.7 | 0.00 | 0.00 | 0.00 | 65 | 1012.2 |
| 20260902222620 | 89 | 211 | 9.6 | 9.6 | 0.00 | 0.00 | 0.00 | 64 | 1012.0 |
| 20260902222119 | 89 | 221 | 10.4 | 11.3 | 0.00 | 0.00 | 0.00 | 63 | 1012.2 |
| 20260902221613 | 89 | 217 | 9.6 | 11.3 | 0.00 | 0.00 | 0.00 | 63 | 1012.1 |
| 20260902221108 | 90 | 224 | 11.3 | 12.2 | 0.00 | 0.00 | 0.00 | 62 | 1012.2 |
| 20260902220604 | 90 | 210 | 8.7 | 8.7 | 0.00 | 0.00 | 0.00 | 64 | 1012.1 |
| 20260902220058 | 90 | 216 | 8.7 | 8.7 | 0.00 | 0.00 | 0.00 | 62 | 1012.3 |
| 20260902215555 | 90 | 219 | 10.4 | 12.2 | 0.00 | 0.00 | 0.00 | 61 | 1012.5 |
| 20260902215049 | 90 | 225 | 12.2 | 13.0 | 0.00 | 0.00 | 0.00 | 60 | 1012.2 |
| 20260902214544 | 90 | 213 | 12.2 | 13.0 | 0.00 | 0.00 | 0.00 | 60 | 1012.3 |
| 20260902214043 | 90 | 220 | 11.3 | 12.2 | 0.00 | 0.00 | 0.00 | 60 | 1012.2 |
| 20260902213539 | 90 | 227 | 8.7 | 9.6 | 0.00 | 0.00 | 0.00 | 62 | 1012.5 |
| 20260902213038 | 91 | 219 | 11.3 | 12.2 | 0.00 | 0.00 | 0.00 | 63 | 1012.5 |
| 20260902212534 | 91 | 207 | 12.2 | 13.0 | 0.00 | 0.00 | 0.00 | 61 | 1012.6 |
| 20260902212030 | 90 | 207 | 6.1 | 7.0 | 0.00 | 0.00 | 0.00 | 67 | 1012.5 |
| 20260902211526 | 91 | 216 | 7.8 | 7.8 | 0.00 | 0.00 | 0.00 | 63 | 1012.4 |
| 20260902211020 | 91 | 215 | 7.0 | 8.7 | 0.00 | 0.00 | 0.00 | 66 | 1012.3 |
| 20260902210515 | 91 | 233 | 10.4 | 12.2 | 0.00 | 0.00 | 0.00 | 62 | 1012.6 |
| 20260902210014 | 91 | 220 | 10.4 | 12.2 | 0.00 | 0.00 | 0.00 | 61 | 1012.5 |
| 20260902205508 | 91 | 209 | 9.6 | 11.3 | 0.00 | 0.00 | 0.00 | 62 | 1012.6 |
| 20260902205004 | 91 | 228 | 11.3 | 13.9 | 0.00 | 0.00 | 0.00 | 60 | 1012.6 |
| 20260902204503 | 91 | 235 | 12.2 | 14.8 | 0.00 | 0.00 | 0.00 | 60 | 1012.8 |
| 20260902203959 | 92 | 230 | 14.8 | 15.6 | 0.00 | 0.00 | 0.00 | 59 | 1012.7 |
| 20260902203454 | 92 | 222 | 12.2 | 13.0 | 0.00 | 0.00 | 0.00 | 60 | 1012.8 |
| 20260902202953 | 92 | 219 | 10.4 | 11.3 | 0.00 | 0.00 | 0.00 | 60 | 1012.8 |
| 20260902202449 | 91 | 219 | 10.4 | 12.2 | 0.00 | 0.00 | 0.00 | 62 | 1013.1 |
| 20260902201946 | 92 | 207 | 7.0 | 7.8 | 0.00 | 0.00 | 0.00 | 64 | 1012.8 |
| 20260902201441 | 92 | 222 | 9.6 | 11.3 | 0.00 | 0.00 | 0.00 | 63 | 1012.9 |
| 20260902200940 | 92 | 216 | 11.3 | 12.2 | 0.00 | 0.00 | 0.00 | 60 | 1013.1 |
| 20260902200435 | 92 | 234 | 11.3 | 13.9 | 0.00 | 0.00 | 0.00 | 60 | 1013.0 |
| 20260902195931 | 92 | 215 | 8.7 | 9.6 | 0.00 | 0.00 | 0.00 | 62 | 1013.3 |
| 20260902195426 | 92 | 201 | 6.1 | 7.0 | 0.00 | 0.00 | 0.00 | 67 | 1013.0 |
| 20260902194920 | 92 | 232 | 7.8 | 8.7 | 0.00 | 0.00 | 0.00 | 64 | 1013.3 |
| 20260902194419 | 92 | 221 | 11.3 | 12.2 | 0.00 | 0.00 | 0.00 | 61 | 1013.3 |
| 20260902193914 | 91 | 225 | 9.6 | 11.3 | 0.00 | 0.00 | 0.00 | 63 | 1013.3 |
| 20260902193411 | 91 | 214 | 13.0 | 13.9 | 0.00 | 0.00 | 0.00 | 62 | 1013.1 |
| 20260902192909 | 91 | 218 | 9.6 | 11.3 | 0.00 | 0.00 | 0.00 | 64 | 1013.4 |
| 20260902192408 | 91 | 218 | 11.3 | 13.9 | 0.00 | 0.00 | 0.00 | 62 | 1013.3 |
| 20260902191903 | 90 | 227 | 7.8 | 8.7 | 0.00 | 0.00 | 0.00 | 66 | 1013.4 |
| 20260902191359 | 91 | 221 | 10.4 | 12.2 | 0.00 | 0.00 | 0.00 | 63 | 1013.4 |
| 20260902190858 | 90 | 229 | 9.6 | 12.2 | 0.00 | 0.00 | 0.00 | 65 | 1013.6 |
| 20260902190353 | 91 | 215 | 11.3 | 13.9 | 0.00 | 0.00 | 0.00 | 63 | 1013.6 |
| 20260902185849 | 90 | 223 | 7.8 | 7.8 | 0.00 | 0.00 | 0.00 | 67 | 1013.6 |
| 20260902185345 | 90 | 223 | 8.7 | 9.6 | 0.00 | 0.00 | 0.00 | 65 | 1013.8 |
| 20260902184840 | 90 | 240 | 9.6 | 9.6 | 0.00 | 0.00 | 0.00 | 63 | 1013.8 |
| 20260902184335 | 90 | 227 | 7.8 | 9.6 | 0.00 | 0.00 | 0.00 | 67 | 1013.9 |
| 20260902183825 | 91 | 219 | 9.6 | 11.3 | 0.00 | 0.00 | 0.00 | 65 | 1013.6 |
| 20260902183321 | 90 | 224 | 8.7 | 9.6 | 0.00 | 0.00 | 0.00 | 66 | 1013.9 |
| 20260902182817 | 91 | 207 | 7.0 | 8.7 | 0.00 | 0.00 | 0.00 | 67 | 1013.8 |
| 20260902182313 | 91 | 218 | 7.8 | 7.8 | 0.00 | 0.00 | 0.00 | 66 | 1013.8 |
| 20260902181809 | 91 | 226 | 7.8 | 8.7 | 0.00 | 0.00 | 0.00 | 68 | 1013.9 |
| 20260902181304 | 91 | 234 | 8.7 | 9.6 | 0.00 | 0.00 | 0.00 | 64 | 1013.8 |
| 20260902180758 | 91 | 221 | 11.3 | 13.0 | 0.00 | 0.00 | 0.00 | 62 | 1014.1 |
| 20260902180254 | 91 | 223 | 8.7 | 9.6 | 0.00 | 0.00 | 0.00 | 65 | 1014.0 |
| 20260902175749 | 90 | 232 | 8.7 | 9.6 | 0.00 | 0.00 | 0.00 | 66 | 1013.8 |
| 20260902175245 | 91 | 206 | 9.6 | 11.3 | 0.00 | 0.00 | 0.00 | 65 | 1013.9 |
| 20260902174740 | 90 | 235 | 9.6 | 9.6 | 0.00 | 0.00 | 0.00 | 64 | 1014.2 |
| 20260902174236 | 90 | 191 | 8.7 | 9.6 | 0.00 | 0.00 | 0.00 | 67 | 1014.6 |
| 20260902173731 | 89 | 203 | 7.8 | 7.8 | 0.00 | 0.00 | 0.00 | 67 | 1014.6 |
| 20260902173226 | 89 | 216 | 7.8 | 8.7 | 0.00 | 0.00 | 0.00 | 68 | 1014.3 |
| 20260902172720 | 90 | 222 | 6.1 | 7.8 | 0.00 | 0.00 | 0.00 | 69 | 1014.6 |
| 20260902172220 | 90 | 241 | 7.8 | 7.8 | 0.00 | 0.00 | 0.00 | 69 | 1014.6 |
| 20260902171715 | 89 | 220 | 6.1 | 6.1 | 0.00 | 0.00 | 0.00 | 70 | 1014.6 |
| 20260902171210 | 88 | 237 | 9.6 | 11.3 | 0.00 | 0.00 | 0.00 | 66 | 1014.5 |
| 20260902170707 | 88 | 206 | 8.7 | 8.7 | 0.00 | 0.00 | 0.00 | 70 | 1014.8 |
| 20260902170202 | 88 | 225 | 7.8 | 7.8 | 0.00 | 0.00 | 0.00 | 72 | 1014.9 |
| 20260902165656 | 88 | 211 | 7.8 | 8.7 | 0.00 | 0.00 | 0.00 | 71 | 1014.9 |
| 20260902165150 | 88 | 221 | 8.7 | 9.6 | 0.00 | 0.00 | 0.00 | 70 | 1014.8 |
| 20260902164646 | 88 | 217 | 7.0 | 7.8 | 0.00 | 0.00 | 0.00 | 72 | 1015.1 |
| 20260902164145 | 88 | 236 | 6.1 | 7.8 | 0.00 | 0.00 | 0.00 | 73 | 1015.1 |
| 20260902163640 | 88 | 191 | 9.6 | 11.3 | 0.00 | 0.00 | 0.00 | 72 | 1014.9 |
| 20260902163139 | 88 | 200 | 9.6 | 11.3 | 0.00 | 0.00 | 0.00 | 72 | 1015.1 |
| 20260902162638 | 88 | 234 | 8.7 | 9.6 | 0.00 | 0.00 | 0.00 | 71 | 1015.1 |
| 20260902162133 | 87 | 229 | 7.8 | 8.7 | 0.00 | 0.00 | 0.00 | 70 | 1015.1 |
| 20260902161628 | 87 | 230 | 5.2 | 6.1 | 0.00 | 0.00 | 0.00 | 71 | 1015.4 |
| 20260902161124 | 86 | 223 | 7.8 | 7.8 | 0.00 | 0.00 | 0.00 | 74 | 1015.4 |
| 20260902160620 | 86 | 209 | 6.1 | 7.0 | 0.00 | 0.00 | 0.00 | 75 | 1015.3 |
| 20260902160115 | 86 | 219 | 6.1 | 7.0 | 0.00 | 0.00 | 0.00 | 75 | 1015.3 |
| 20260902155613 | 87 | 198 | 5.2 | 6.1 | 0.00 | 0.00 | 0.00 | 75 | 1015.2 |
| 20260902155112 | 86 | 209 | 3.5 | 4.3 | 0.00 | 0.00 | 0.00 | 77 | 1015.2 |
| 20260902154608 | 85 | 215 | 6.1 | 7.0 | 0.00 | 0.00 | 0.00 | 76 | 1015.3 |
| 20260902154102 | 85 | 217 | 6.1 | 7.0 | 0.00 | 0.00 | 0.00 | 75 | 1015.4 |
| 20260902153600 | 85 | 230 | 4.3 | 6.1 | 0.00 | 0.00 | 0.00 | 77 | 1015.3 |
| 20260902153056 | 85 | 247 | 4.3 | 5.2 | 0.00 | 0.00 | 0.00 | 75 | 1015.4 |
| 20260902152553 | 85 | 239 | 6.1 | 7.8 | 0.00 | 0.00 | 0.00 | 75 | 1015.1 |
| 20260902152048 | 85 | 229 | 6.1 | 7.0 | 0.00 | 0.00 | 0.00 | 76 | 1015.2 |
| 20260902151544 | 85 | 224 | 4.3 | 5.2 | 0.00 | 0.00 | 0.00 | 79 | 1015.3 |
| 20260902151043 | 84 | 222 | 5.2 | 6.1 | 0.00 | 0.00 | 0.00 | 78 | 1015.2 |
| 20260902150538 | 84 | 226 | 4.3 | 6.1 | 0.00 | 0.00 | 0.00 | 79 | 1015.1 |
| 20260902150033 | 84 | 216 | 6.1 | 7.0 | 0.00 | 0.00 | 0.00 | 78 | 1015.0 |
| 20260902145523 | 85 | 230 | 6.1 | 7.0 | 0.00 | 0.00 | 0.00 | 75 | 1015.1 |
| 20260902145023 | 84 | 226 | 7.0 | 7.8 | 0.00 | 0.00 | 0.00 | 77 | 1014.9 |
| 20260902144519 | 84 | 216 | 8.7 | 9.6 | 0.00 | 0.00 | 0.00 | 76 | 1015.0 |
| 20260902144014 | 84 | 218 | 8.7 | 9.6 | 0.00 | 0.00 | 0.00 | 77 | 1014.9 |
| 20260902143509 | 83 | 228 | 7.8 | 9.6 | 0.00 | 0.00 | 0.00 | 80 | 1015.0 |
| 20260902143004 | 83 | 232 | 7.0 | 7.8 | 0.00 | 0.00 | 0.00 | 80 | 1015.1 |
| 20260902142500 | 82 | 225 | 8.7 | 8.7 | 0.00 | 0.00 | 0.00 | 79 | 1015.1 |
| 20260902141955 | 83 | 224 | 7.0 | 8.7 | 0.00 | 0.00 | 0.00 | 80 | 1014.9 |
| 20260902141449 | 82 | 228 | 7.0 | 7.8 | 0.00 | 0.00 | 0.00 | 82 | 1014.9 |
| 20260902140944 | 82 | 206 | 6.1 | 7.8 | 0.00 | 0.00 | 0.00 | 83 | 1014.9 |
| 20260902140439 | 81 | 230 | 7.0 | 7.8 | 0.00 | 0.00 | 0.00 | 83 | 1014.7 |
| 20260902135939 | 81 | 234 | 6.1 | 6.1 | 0.00 | 0.00 | 0.00 | 84 | 1015.0 |
| 20260902135435 | 80 | 227 | 7.8 | 9.6 | 0.00 | 0.00 | 0.00 | 84 | 1015.0 |
| 20260902134933 | 80 | 220 | 7.0 | 7.8 | 0.00 | 0.00 | 0.00 | 85 | 1015.1 |
| 20260902134430 | 80 | 216 | 6.1 | 7.0 | 0.00 | 0.00 | 0.00 | 86 | 1014.9 |
| 20260902133924 | 80 | 222 | 6.1 | 7.0 | 0.00 | 0.00 | 0.00 | 86 | 1014.9 |
| 20260902133419 | 79 | 218 | 5.2 | 6.1 | 0.00 | 0.00 | 0.00 | 87 | 1014.8 |
| 20260902132914 | 79 | 237 | 7.0 | 7.8 | 0.00 | 0.00 | 0.00 | 86 | 1014.9 |
| 20260902132409 | 79 | 226 | 7.0 | 7.8 | 0.00 | 0.00 | 0.00 | 87 | 1015.0 |
| 20260902131904 | 78 | 238 | 5.2 | 6.1 | 0.00 | 0.00 | 0.00 | 88 | 1014.9 |
| 20260902131401 | 78 | 231 | 6.1 | 6.1 | 0.00 | 0.00 | 0.00 | 88 | 1015.1 |
| 20260902130900 | 78 | 229 | 7.8 | 8.7 | 0.00 | 0.00 | 0.00 | 88 | 1015.1 |
| 20260902130356 | 78 | 226 | 7.0 | 7.8 | 0.00 | 0.00 | 0.00 | 88 | 1014.9 |
| 20260902125851 | 77 | 206 | 5.2 | 6.1 | 0.00 | 0.00 | 0.00 | 89 | 1015.0 |
| 20260902125347 | 77 | 220 | 7.0 | 7.8 | 0.00 | 0.00 | 0.00 | 89 | 1015.1 |
| 20260902124843 | 77 | 211 | 5.2 | 6.1 | 0.00 | 0.00 | 0.00 | 90 | 1014.9 |
| 20260902124339 | 77 | 229 | 5.2 | 7.0 | 0.00 | 0.00 | 0.00 | 90 | 1014.8 |
| 20260902123833 | 77 | 218 | 7.0 | 7.0 | 0.00 | 0.00 | 0.00 | 90 | 1014.9 |
| 20260902123330 | 76 | 215 | 5.2 | 6.1 | 0.00 | 0.00 | 0.00 | 91 | 1014.7 |
| 20260902122828 | 76 | 214 | 3.5 | 5.2 | 0.00 | 0.00 | 0.00 | 91 | 1014.7 |
| 20260902122325 | 76 | 223 | 4.3 | 5.2 | 0.00 | 0.00 | 0.00 | 91 | 1014.8 |
| 20260902121823 | 75 | 225 | 4.3 | 6.1 | 0.00 | 0.00 | 0.00 | 91 | 1014.9 |
| 20260902121313 | 75 | 217 | 4.3 | 5.2 | 0.00 | 0.00 | 0.00 | 91 | 1014.8 |
| 20260902120808 | 75 | 239 | 3.5 | 4.3 | 0.00 | 0.00 | 0.00 | 92 | 1014.9 |
| 20260902120305 | 75 | 223 | 4.3 | 4.3 | 0.00 | 0.00 | 0.00 | 91 | 1015.0 |
| 20260902115759 | 75 | 209 | 4.3 | 5.2 | 0.00 | 0.00 | 0.00 | 91 | 1015.0 |
| 20260902115255 | 75 | 218 | 3.5 | 4.3 | 0.00 | 0.00 | 0.00 | 92 | 1014.9 |
| 20260902114746 | 75 | 229 | 4.3 | 5.2 | 0.00 | 0.00 | 0.00 | 92 | 1014.9 |
| 20260902114241 | 74 | 224 | 4.3 | 5.2 | 0.00 | 0.00 | 0.00 | 92 | 1014.7 |
| 20260902113736 | 74 | 228 | 4.3 | 5.2 | 0.00 | 0.00 | 0.00 | 92 | 1014.7 |
| 20260902113231 | 74 | 224 | 4.3 | 4.3 | 0.00 | 0.00 | 0.00 | 92 | 1014.8 |
| 20260902112730 | 73 | 216 | 4.3 | 5.2 | 0.00 | 0.00 | 0.00 | 92 | 1014.3 |
| 20260902112228 | 73 | 223 | 3.5 | 4.3 | 0.00 | 0.00 | 0.00 | 92 | 1014.1 |
| 20260902111723 | 73 | 231 | 3.5 | 4.3 | 0.00 | 0.00 | 0.00 | 92 | 1014.3 |
| 20260902111219 | 73 | 209 | 3.5 | 4.3 | 0.00 | 0.00 | 0.00 | 92 | 1014.6 |
| 20260902110714 | 73 | 206 | 2.6 | 4.3 | 0.00 | 0.00 | 0.00 | 92 | 1014.7 |
| 20260902110210 | 73 | 211 | 3.5 | 4.3 | 0.00 | 0.00 | 0.00 | 92 | 1014.8 |
| 20260902105710 | 73 | 223 | 2.6 | 2.6 | 0.00 | 0.00 | 0.00 | 92 | 1014.6 |
| 20260902105205 | 74 | 228 | 2.6 | 2.6 | 0.00 | 0.00 | 0.00 | 92 | 1014.9 |
| 20260902104700 | 74 | 222 | 3.5 | 4.3 | 0.00 | 0.00 | 0.00 | 92 | 1014.8 |
| 20260902104157 | 74 | 225 | 2.6 | 2.6 | 0.00 | 0.00 | 0.00 | 92 | 1014.5 |
| 20260902103655 | 74 | 217 | 3.5 | 4.3 | 0.00 | 0.00 | 0.00 | 92 | 1014.5 |
| 20260902103150 | 73 | 220 | 4.3 | 5.2 | 0.00 | 0.00 | 0.00 | 92 | 1014.7 |
| 20260902102646 | 73 | 222 | 4.3 | 5.2 | 0.00 | 0.00 | 0.00 | 92 | 1014.6 |
| 20260902102144 | 73 | 216 | 2.6 | 4.3 | 0.00 | 0.00 | 0.00 | 92 | 1014.7 |
| 20260902101639 | 73 | 208 | 2.6 | 2.6 | 0.00 | 0.00 | 0.00 | 92 | 1014.6 |
| 20260902101138 | 73 | 214 | 3.5 | 4.3 | 0.00 | 0.00 | 0.00 | 92 | 1014.7 |
| 20260902100632 | 73 | 208 | 3.5 | 4.3 | 0.00 | 0.00 | 0.00 | 92 | 1014.5 |
| 20260902100122 | 73 | 212 | 4.3 | 4.3 | 0.00 | 0.00 | 0.00 | 92 | 1014.5 |
| 20260902095621 | 74 | 212 | 2.6 | 2.6 | 0.00 | 0.00 | 0.00 | 92 | 1014.6 |
| 20260902095120 | 74 | 218 | 3.5 | 4.3 | 0.00 | 0.00 | 0.00 | 92 | 1014.3 |
| 20260902094616 | 74 | 211 | 3.5 | 4.3 | 0.00 | 0.00 | 0.00 | 92 | 1014.5 |
| 20260902094113 | 74 | 207 | 4.3 | 4.3 | 0.00 | 0.00 | 0.00 | 92 | 1014.5 |
| 20260902093611 | 74 | 211 | 4.3 | 4.3 | 0.00 | 0.00 | 0.00 | 92 | 1014.6 |
| 20260902093101 | 74 | 202 | 4.3 | 5.2 | 0.00 | 0.00 | 0.00 | 92 | 1014.3 |
| 20260902092601 | 74 | 202 | 4.3 | 5.2 | 0.00 | 0.00 | 0.00 | 92 | 1014.3 |
| 20260902092056 | 74 | 210 | 3.5 | 4.3 | 0.00 | 0.00 | 0.00 | 92 | 1014.3 |
| 20260902091551 | 73 | 199 | 4.3 | 5.2 | 0.00 | 0.00 | 0.00 | 92 | 1014.3 |
| 20260902091047 | 73 | 194 | 4.3 | 5.2 | 0.00 | 0.00 | 0.00 | 92 | 1014.5 |
| 20260902090543 | 73 | 192 | 4.3 | 5.2 | 0.00 | 0.00 | 0.00 | 92 | 1014.6 |
| 20260902090042 | 73 | 196 | 4.3 | 5.2 | 0.00 | 0.00 | 0.00 | 92 | 1014.3 |
| 20260902085536 | 73 | 200 | 4.3 | 5.2 | 0.00 | 0.00 | 0.00 | 92 | 1014.3 |
| 20260902085031 | 73 | 194 | 4.3 | 5.2 | 0.00 | 0.00 | 0.00 | 92 | 1014.5 |
| 20260902084522 | 73 | 189 | 3.5 | 4.3 | 0.00 | 0.00 | 0.00 | 92 | 1014.3 |
| 20260902084017 | 73 | 188 | 2.6 | 2.6 | 0.00 | 0.00 | 0.00 | 92 | 1014.3 |
| 20260902083513 | 73 | 191 | 2.6 | 2.6 | 0.00 | 0.00 | 0.00 | 92 | 1014.3 |
| 20260902083007 | 73 | 191 | 3.5 | 4.3 | 0.00 | 0.00 | 0.00 | 92 | 1014.1 |
| 20260902082503 | 73 | 184 | 4.3 | 5.2 | 0.00 | 0.00 | 0.00 | 92 | 1014.3 |
| 20260902081959 | 73 | 184 | 3.5 | 4.3 | 0.00 | 0.00 | 0.00 | 92 | 1014.5 |
| 20260902081455 | 74 | 181 | 3.5 | 4.3 | 0.00 | 0.00 | 0.00 | 92 | 1014.2 |
| 20260902080949 | 73 | 165 | 0.9 | 0.9 | 0.00 | 0.00 | 0.00 | 92 | 1014.2 |
| 20260902080446 | 73 | 106 | 0.0 | 0.0 | 0.00 | 0.00 | 0.00 | 92 | 1014.3 |
| 20260902075945 | 74 | 101 | 0.0 | 0.0 | 0.00 | 0.00 | 0.00 | 92 | 1014.2 |
| 20260902075441 | 74 | 109 | 0.0 | 0.0 | 0.00 | 0.00 | 0.00 | 92 | 1014.2 |
| 20260902074936 | 74 | 46 | 0.0 | 0.0 | 0.00 | 0.00 | 0.00 | 92 | 1014.0 |
| 20260902074432 | 73 | 35 | 0.0 | 0.9 | 0.00 | 0.00 | 0.00 | 92 | 1014.0 |
| 20260902073927 | 74 | 18 | 0.9 | 0.9 | 0.00 | 0.00 | 0.00 | 92 | 1014.3 |
| 20260902073423 | 75 | 155 | 0.9 | 0.9 | 0.00 | 0.00 | 0.00 | 92 | 1014.0 |
| 20260902072919 | 75 | 183 | 1.7 | 1.7 | 0.00 | 0.00 | 0.00 | 92 | 1014.0 |
| 20260902072414 | 74 | 182 | 2.6 | 2.6 | 0.00 | 0.00 | 0.00 | 92 | 1013.8 |
| 20260902071911 | 74 | 173 | 4.3 | 5.2 | 0.00 | 0.00 | 0.00 | 92 | 1013.7 |
| 20260902071410 | 74 | 188 | 4.3 | 4.3 | 0.00 | 0.00 | 0.00 | 92 | 1013.7 |
| 20260902070907 | 74 | 183 | 2.6 | 2.6 | 0.00 | 0.00 | 0.00 | 92 | 1013.8 |
| 20260902070402 | 74 | 180 | 2.6 | 2.6 | 0.00 | 0.00 | 0.00 | 92 | 1014.0 |
| 20260902065901 | 74 | 187 | 2.6 | 2.6 | 0.00 | 0.00 | 0.00 | 92 | 1013.7 |
| 20260902065355 | 74 | 180 | 2.6 | 2.6 | 0.00 | 0.00 | 0.00 | 92 | 1013.8 |
| 20260902064850 | 74 | 177 | 3.5 | 4.3 | 0.00 | 0.00 | 0.00 | 92 | 1013.7 |
| 20260902064346 | 73 | 184 | 4.3 | 4.3 | 0.00 | 0.00 | 0.00 | 92 | 1013.9 |
| 20260902063837 | 73 | 195 | 5.2 | 6.1 | 0.00 | 0.00 | 0.00 | 92 | 1013.7 |
| 20260902063336 | 74 | 194 | 4.3 | 5.2 | 0.00 | 0.00 | 0.00 | 92 | 1013.8 |
| 20260902062830 | 75 | 186 | 4.3 | 4.3 | 0.00 | 0.00 | 0.00 | 92 | 1014.0 |
| 20260902062325 | 75 | 175 | 3.5 | 4.3 | 0.00 | 0.00 | 0.00 | 92 | 1013.8 |
| 20260902061825 | 75 | 183 | 3.5 | 4.3 | 0.00 | 0.00 | 0.00 | 92 | 1014.0 |
| 20260902061320 | 75 | 177 | 3.5 | 4.3 | 0.00 | 0.00 | 0.00 | 91 | 1014.0 |
| 20260902060817 | 75 | 172 | 3.5 | 4.3 | 0.00 | 0.00 | 0.00 | 90 | 1014.0 |
| 20260902060312 | 75 | 177 | 1.7 | 1.7 | 0.00 | 0.00 | 0.00 | 90 | 1014.1 |
| 20260902055807 | 75 | 158 | 0.9 | 0.9 | 0.00 | 0.00 | 0.00 | 90 | 1014.0 |
| 20260902055258 | 75 | 160 | 1.7 | 1.7 | 0.00 | 0.00 | 0.00 | 90 | 1014.5 |
| 20260902054753 | 75 | 167 | 2.6 | 2.6 | 0.00 | 0.00 | 0.00 | 90 | 1014.6 |
| 20260902054248 | 75 | 166 | 2.6 | 2.6 | 0.00 | 0.00 | 0.00 | 90 | 1014.3 |
| 20260902053743 | 75 | 161 | 1.7 | 1.7 | 0.00 | 0.00 | 0.00 | 90 | 1014.3 |
| 20260902053242 | 73 | 176 | 2.6 | 2.6 | 0.00 | 0.00 | 0.00 | 91 | 1014.5 |
| 20260902052737 | 72 | 178 | 2.6 | 2.6 | 0.00 | 0.00 | 0.00 | 91 | 1014.3 |
| 20260902052232 | 72 | 183 | 1.7 | 1.7 | 0.00 | 0.00 | 0.00 | 90 | 1014.5 |
| 20260902051732 | 74 | 164 | 1.7 | 1.7 | 0.00 | 0.00 | 0.00 | 89 | 1014.3 |
| 20260902051226 | 73 | 165 | 1.7 | 1.7 | 0.00 | 0.00 | 0.00 | 90 | 1014.3 |
| 20260902050721 | 73 | 155 | 0.0 | 0.0 | 0.00 | 0.00 | 0.00 | 90 | 1014.5 |
| 20260902050216 | 74 | 99 | 0.0 | 0.0 | 0.00 | 0.00 | 0.00 | 89 | 1014.2 |
| 20260902045711 | 74 | 67 | 0.0 | 0.0 | 0.00 | 0.00 | 0.00 | 89 | 1014.2 |
| 20260902045207 | 74 | 73 | 0.0 | 0.0 | 0.00 | 0.00 | 0.00 | 89 | 1014.3 |
| 20260902044702 | 74 | 64 | 0.0 | 0.0 | 0.00 | 0.00 | 0.00 | 88 | 1014.2 |
| 20260902044158 | 73 | 45 | 0.0 | 0.0 | 0.00 | 0.00 | 0.00 | 89 | 1014.2 |